Location: Unspecified
(17.0060°N, 0.0000°E)
Time: 18:19:30
(UTC+00:00)

ISS - Visible Passes

Search period start: 24 April 2019 00:00
Search period end: 04 May 2019 00:00
Orbit: 408 x 410 km, 51.6° (Epoch: 25 April)

Date Brightness Start Highest point End Pass type
(mag) Time Alt. Az. Time Alt. Az. Time Alt. Az.
24 Apr -3.2 05:04:37 11° WSW 05:07:34 41° NW 05:10:42 10° NNE visible
25 Apr -3.8 04:16:28 64° S 04:16:48 72° SE 04:20:05 10° NE visible
26 Apr -0.6 03:28:11 14° ENE 03:28:11 14° ENE 03:28:54 10° ENE visible
26 Apr -1.5 05:01:13 10° WNW 05:02:35 12° NW 05:03:57 10° NNW visible
27 Apr -2.1 04:12:33 23° NNW 04:12:33 23° NNW 04:14:30 10° N visible
28 Apr -0.4 03:24:01 11° NNE 03:24:01 11° NNE 03:24:07 10° NNE visible
